DL9LAF-4 Weather Reports


time (UTC)temp
C
wind
direction
speed
KPH
gust
KPH
rain 1hr
cm
rain 24hr
cm
rain mn
cm
humidity
%
barometer
mb
20260507110556 17 90 0.0 0.0 0.00 0.00 0.00 52 993.9
20260507105556 17 45 0.0 0.0 0.00 0.00 0.00 53 994.0
20260507104556 16 67 0.0 0.0 0.00 0.00 0.00 55 994.0
20260507103556 16 67 0.0 0.0 0.00 0.00 0.00 56 994.0
20260507102556 16 67 0.0 0.0 0.00 0.00 0.00 58 994.0
20260507101556 15 67 0.0 0.0 0.00 0.00 0.00 59 993.9
20260507100556 15 67 0.0 0.0 0.00 0.00 0.00 60 993.7
20260507095556 15 67 0.0 0.0 0.00 0.00 0.00 62 993.7
20260507094556 14 90 0.0 0.0 0.00 0.00 0.00 63 993.7
20260507093556 13 45 0.0 0.0 0.00 0.00 0.00 65 993.5
20260507092556 13 67 0.0 0.0 0.00 0.00 0.00 66 993.5
20260507091556 13 67 0.0 0.0 0.00 0.00 0.00 67 993.5
20260507090556 12 45 0.0 0.0 0.00 0.00 0.00 69 993.5
20260507085556 12 90 0.0 0.0 0.00 0.00 0.00 70 993.4
20260507084556 12 45 0.0 0.0 0.00 0.00 0.00 72 993.4
20260507083556 11 67 0.0 0.0 0.00 0.00 0.00 73 993.4
20260507082556 11 67 0.0 0.0 0.00 0.00 0.00 75 993.2
20260507081556 11 67 0.0 0.0 0.00 0.00 0.00 76 993.2
20260507080556 10 90 0.0 0.0 0.00 0.00 0.00 78 993.2
20260507075556 10 67 0.0 0.0 0.00 0.00 0.00 79 993.2
20260507074556 10 67 0.0 0.0 0.00 0.00 0.00 81 993.2
20260507073556 9 67 0.0 0.0 0.00 0.00 0.00 82 993.0
20260507072556 9 90 0.0 0.0 0.00 0.00 0.00 83 993.0
20260507071556 8 67 0.0 0.0 0.00 0.00 0.00 84 992.9
20260507070556 8 67 0.0 0.0 0.00 0.00 0.00 85 992.9
20260507065556 7 67 0.0 0.0 0.00 0.00 0.00 86 992.5
20260507064556 7 67 0.0 0.0 0.00 0.00 0.00 86 992.5
20260507063556 7 67 0.0 0.0 0.00 0.00 0.00 86 992.5
20260507062556 6 67 0.0 0.0 0.00 0.00 0.00 86 992.5
20260507061556 6 270 294.5 0.0 0.00 0.00 0.00 86 992.2
20260507060556 6 45 0.0 0.0 0.00 0.00 0.00 86 992.2
20260507055556 5 45 0.0 0.0 0.00 0.00 0.00 85 992.2
20260507054556 5 45 0.0 0.0 0.00 0.00 0.00 85 992.2
20260507053556 5 45 0.0 0.0 0.00 0.00 0.00 85 992.2
20260507052556 4 45 0.0 0.0 0.00 0.00 0.00 85 992.2
20260507051556 3 45 0.0 0.0 0.00 0.00 0.00 85 992.0
20260507050556 3 45 0.0 0.0 0.00 0.00 0.00 84 992.0
20260507045556 3 45 0.0 0.0 0.00 0.00 0.00 84 991.9
20260507044556 3 270 294.5 0.0 0.00 0.00 0.00 84 991.7
20260507043556 3 270 294.5 0.0 0.00 0.00 0.00 83 991.5
20260507042556 3 45 0.0 0.0 0.00 0.00 0.00 83 991.4
20260507041556 3 45 0.0 0.0 0.00 0.00 0.00 83 991.2
20260507040556 3 45 0.0 0.0 0.00 0.00 0.00 83 991.2
20260507035556 3 45 0.0 0.0 0.00 0.00 0.00 82 991.2
20260507034556 3 45 0.0 0.0 0.00 0.00 0.00 82 991.2
20260507033556 3 45 0.0 0.0 0.00 0.00 0.00 82 991.0
20260507032556 3 45 0.0 0.0 0.00 0.00 0.00 82 991.0
20260507031556 3 270 294.5 0.0 0.00 0.00 0.00 82 990.9
20260507030556 3 337 146.5 0.0 0.00 0.00 0.00 82 991.0
20260507025556 3 270 294.5 0.0 0.00 0.00 0.00 81 990.9
20260507024556 3 270 294.5 0.0 0.00 0.00 0.00 81 990.9
20260507023556 3 270 294.5 0.0 0.00 0.00 0.00 81 990.7
20260507022556 3 45 0.0 0.0 0.00 0.00 0.00 81 990.7
20260507021556 3 337 294.5 0.0 0.00 0.00 0.00 80 990.7
20260507020556 3 45 0.0 0.0 0.00 0.00 0.00 80 990.5
20260507015556 4 45 0.0 0.0 0.00 0.00 0.00 80 990.5
20260507014556 4 337 146.5 0.0 0.00 0.00 0.00 79 990.4
20260507013556 4 337 146.5 0.0 0.00 0.00 0.00 79 990.2
20260507012556 5 337 146.5 0.0 0.00 0.00 0.00 78 990.2
20260507011556 5 337 146.5 0.0 0.00 0.00 0.00 78 990.2
20260507010556 5 45 0.0 0.0 0.00 0.00 0.00 77 990.0
20260507005556 5 337 146.5 0.0 0.00 0.00 0.00 77 990.0
20260507004556 5 45 0.0 0.0 0.00 0.00 0.00 77 989.9
20260507003556 5 337 146.5 0.0 0.00 0.00 0.00 77 989.7
20260507002556 5 45 0.0 0.0 0.00 0.00 0.00 76 989.7
20260507001556 5 45 0.0 0.0 0.00 0.00 0.00 76 989.9
20260507000556 6 45 0.0 0.0 0.00 0.00 0.00 76 989.9
20260506235556 6 45 0.0 0.0 0.00 0.00 0.00 75 989.7
20260506234556 6 45 0.0 0.0 0.00 0.00 0.00 74 989.7
20260506233556 6 45 0.0 0.0 0.00 0.00 0.00 74 989.7
20260506232556 6 45 0.0 0.0 0.00 0.00 0.00 73 989.7
20260506231556 6 45 0.0 0.0 0.00 0.00 0.00 73 989.7
20260506230556 6 45 0.0 0.0 0.00 0.00 0.00 73 989.5
20260506225556 6 45 0.0 0.0 0.00 0.00 0.00 72 989.7
20260506224556 7 45 0.0 0.0 0.00 0.00 0.00 71 989.5
20260506223556 7 337 146.5 0.0 0.00 0.00 0.00 71 989.2
20260506222556 7 45 0.0 0.0 0.00 0.00 0.00 70 989.2
20260506221556 7 45 0.0 0.0 0.00 0.00 0.00 69 989.2
20260506220556 7 45 0.0 0.0 0.00 0.00 0.00 69 989.2
20260506215556 7 45 0.0 0.0 0.00 0.00 0.00 68 989.2
20260506214556 8 45 0.0 0.0 0.00 0.00 0.00 68 989.0
20260506213556 8 45 0.0 0.0 0.00 0.00 0.00 67 988.9
20260506212556 8 45 0.0 0.0 0.00 0.00 0.00 67 988.7
20260506211556 9 45 0.0 0.0 0.00 0.00 0.00 66 988.7
20260506210556 9 45 0.0 0.0 0.00 0.00 0.00 65 988.7
20260506205556 10 45 0.0 0.0 0.00 0.00 0.00 65 988.7
20260506204556 10 45 0.0 0.0 0.00 0.00 0.00 64 988.9
20260506203556 10 45 0.0 0.0 0.00 0.00 0.00 64 988.7
20260506202556 10 45 0.0 0.0 0.00 0.00 0.00 63 988.7
20260506201556 10 45 0.0 0.0 0.00 0.00 0.00 62 988.5
20260506200556 10 45 0.0 0.0 0.00 0.00 0.00 61 988.5
20260506195556 10 45 0.0 0.0 0.00 0.00 0.00 60 988.4
20260506194556 11 45 0.0 0.0 0.00 0.00 0.00 59 988.2
20260506193556 11 45 0.0 0.0 0.00 0.00 0.00 58 988.2
20260506192556 11 45 0.0 0.0 0.00 0.00 0.00 57 988.0
20260506191556 12 45 0.0 0.0 0.00 0.00 0.00 56 988.0
20260506190556 12 45 0.0 0.0 0.00 0.00 0.00 55 988.0
20260506185556 12 45 0.0 0.0 0.00 0.00 0.00 54 987.7
20260506184556 12 45 0.0 0.0 0.00 0.00 0.00 53 987.7
20260506183556 13 45 0.0 0.0 0.00 0.00 0.00 52 987.5
20260506182556 13 45 0.0 0.0 0.00 0.00 0.00 51 987.4
20260506181556 13 45 0.0 0.0 0.00 0.00 0.00 50 987.4
20260506180556 13 315 294.5 0.0 0.00 0.00 0.00 49 987.2
20260506175556 14 45 0.0 0.0 0.00 0.00 0.00 48 987.2
20260506174556 15 315 294.5 0.0 0.00 0.00 0.00 47 987.2
20260506173556 15 67 0.0 0.0 0.00 0.00 0.00 47 987.0
20260506172556 15 315 294.5 0.0 0.00 0.00 0.00 46 987.0
20260506171556 16 67 0.0 0.0 0.00 0.00 0.00 45 986.9
20260506170556 16 67 0.0 0.0 0.00 0.00 0.00 44 987.0
20260506165556 16 22 0.0 0.0 0.00 0.00 0.00 44 987.0
20260506164556 16 45 0.0 0.0 0.00 0.00 0.00 44 986.9
20260506163556 16 45 0.0 0.0 0.00 0.00 0.00 43 986.9
20260506162556 16 45 0.0 0.0 0.00 0.00 0.00 43 986.7
20260506161556 16 225 294.5 0.0 0.00 0.00 0.00 43 986.9
20260506160556 16 45 0.0 0.0 0.00 0.00 0.00 43 986.7
20260506155556 16 45 0.0 0.0 0.00 0.00 0.00 43 986.7
20260506154556 16 315 146.5 0.0 0.00 0.00 0.00 43 986.7
20260506153556 16 315 146.5 0.0 0.00 0.00 0.00 43 986.9
20260506152556 16 45 0.0 0.0 0.00 0.00 0.00 43 986.7
20260506151556 16 45 0.0 0.0 0.00 0.00 0.00 42 986.7
20260506150556 17 315 72.4 0.0 0.00 0.00 0.00 42 986.7
20260506145556 17 315 72.4 0.0 0.00 0.00 0.00 44 986.7
20260506144556 17 67 0.0 0.0 0.00 0.00 0.00 43 986.9
20260506143556 17 67 0.0 0.0 0.00 0.00 0.00 43 986.7
20260506142556 17 22 0.0 0.0 0.00 0.00 0.00 45 986.9
20260506141556 17 22 0.0 0.0 0.00 0.00 0.00 45 986.9
20260506140556 17 22 0.0 0.0 0.00 0.00 0.00 46 987.0
20260506135556 17 337 220.5 0.0 0.00 0.00 0.00 46 986.9
20260506134556 17 45 0.0 0.0 0.00 0.00 0.00 46 986.9
20260506133556 17 292 146.5 0.0 0.00 0.00 0.00 46 986.9
20260506132556 17 270 146.5 0.0 0.00 0.00 0.00 46 986.7
20260506131556 18 22 0.0 0.0 0.00 0.00 0.00 46 986.5
20260506130556 18 22 0.0 0.0 0.00 0.00 0.00 47 986.5
20260506125556 17 270 146.5 0.0 0.00 0.00 0.00 46 986.5
20260506124556 17 22 0.0 0.0 0.00 0.00 0.00 47 986.5
20260506123556 17 337 91.7 0.0 0.00 0.00 0.00 47 986.5
20260506122556 17 45 0.0 0.0 0.00 0.00 0.00 47 986.5
20260506121556 17 270 146.5 0.0 0.00 0.00 0.00 48 986.5
20260506120556 17 45 0.0 0.0 0.00 0.00 0.00 49 986.5
20260506115556 17 45 0.0 0.0 0.00 0.00 0.00 49 986.4
20260506114556 17 45 0.0 0.0 0.00 0.00 0.00 48 986.4
20260506113556 17 22 0.0 0.0 0.00 0.00 0.00 50 986.4
20260506112556 17 22 0.0 0.0 0.00 0.00 0.00 50 986.5
20260506111556 16 45 0.0 0.0 0.00 0.00 0.00 51 986.7